Terminal Aerodrome Forecast
Issued by NWS Cleveland, OH

Home | Current Version | Previous Version | Graphics & Text | Print | Product List | Glossary On
Versions: 1 2 3 4 5 6 7 8 9 10 11 12 13 14 15 16
303
FTUS41 KCLE 221128
TAFCAK
TAF
KCAK 221128Z 2212/2312 35014G20KT P6SM SCT028 BKN035
      TEMPO 2212/2214 5SM -SHSN BKN028
     FM221800 36011KT P6SM SCT035
     FM230000 36005KT P6SM SCT250=

USA.gov is the U.S. government's official web portal to all federal, state and local government web resources and services.